ECMWFNIL_925_temp_057.txt.gz
Temp
18 18 18 18 18 17 17 17 17 17 17 17 17 17 17 17 17 17 17 17 17 17 17 16 16 16 16 16 16 16 16 16 16 16 16 16 16 16 16 16 16 16
18 18 18 18 18 17 17 17 17 17 17 17 17 17 17 17 17 17 17 16 17 17 16 16 16 16 16 16 16 16 16 16 16 16 16 16 16 16 16 16 16 16
18 18 18 18 18 17 17 17 17 17 17 17 17 17 17 17 17 17 16 16 16 16 16 16 16 16 16 16 17 17 17 17 17 17 17 17 17 17 16 16 16 16
18 18 18 18 18 17 17 17 17 17 17 17 17 17 17 17 17 17 16 16 16 16 16 16 16 16 16 16 17 17 17 17 17 17 17 17 17 17 17 16 16 16
18 18 18 18 18 18 17 17 17 17 17 17 17 17 16 16 17 16 16 16 16 16 16 16 16 16 16 16 17 17 17 17 17 17 18 18 17 17 17 16 16 16
18 18 18 18 18 18 17 17 17 17 17 17 17 16 16 16 16 16 16 16 16 16 16 16 16 16 16 16 17 17 17 17 17 17 18 18 17 17 17 17 17 17
17 17 18 18 18 18 17 17 17 17 17 17 16 16 16 16 16 16 16 16 16 16 16 16 16 15 16 16 17 17 17 17 17 17 17 17 17 17 17 17 17 17
18 18 18 18 18 18 17 17 17 17 17 17 16 16 16 16 16 16 16 16 16 16 16 16 16 15 16 16 16 17 17 17 17 17 17 17 17 17 17 17 17 17
18 18 18 17 17 17 17 17 17 17 17 17 17 16 16 16 16 16 16 16 16 16 16 16 16 16 16 16 16 16 16 16 16 16 17 17 17 17 17 17 17 17
18 17 17 18 18 17 17 17 17 17 17 17 17 16 16 16 16 16 16 16 16 16 16 16 16 16 16 16 16 16 16 16 16 16 16 17 17 17 17 17 17 17
17 17 18 18 18 17 17 17 17 17 17 17 17 16 16 16 15 15 16 16 16 16 16 16 16 16 16 16 16 16 16 16 16 16 16 17 17 17 17 17 17 17
17 17 17 18 17 17 17 17 17 17 17 17 16 16 16 16 15 15 15 15 16 16 16 16 16 16 16 16 16 16 16 16 16 16 16 17 17 17 17 17 17 17
16 16 16 17 17 17 17 17 17 16 16 16 16 16 16 16 16 16 15 15 16 16 16 16 16 16 16 16 16 16 16 16 16 16 17 17 17 17 17 17 17 17
15 15 15 16 16 16 16 16 16 15 15 16 16 15 16 16 16 16 16 16 16 16 16 16 16 16 16 16 16 16 16 16 16 17 17 17 17 17 17 17 17 17
14 14 14 15 15 15 15 15 15 14 14 15 15 15 15 16 16 16 16 15 16 16 16 16 16 16 16 16 16 16 16 16 17 17 17 17 17 17 17 17 17 17
13 13 14 14 14 14 14 14 14 14 15 15 14 15 15 15 15 16 16 15 16 16 16 16 16 16 16 16 16 16 16 16 16 16 17 17 17 16 16 16 16 17
13 13 13 13 14 14 14 14 14 14 14 15 14 15 15 15 15 15 16 16 16 16 16 16 16 16 16 16 16 16 16 16 16 16 16 16 16 16 16 16 16 16
13 13 13 13 13 13 13 13 14 13 14 14 14 15 15 15 15 15 16 16 16 16 16 16 16 16 16 16 16 16 16 16 16 16 16 16 16 16 16 16 16 16
12 12 12 12 12 13 13 12 13 13 13 13 13 14 15 15 15 15 15 16 15 15 15 15 15 15 16 16 16 16 16 16 16 16 16 16 16 16 16 16 16 16
12 12 12 12 12 12 12 12 12 12 12 13 13 13 14 14 14 14 14 15 14 14 14 14 14 15 15 15 16 16 16 16 16 16 16 16 16 16 16 16 16 16
10 11 11 11 11 11 12 11 11 11 11 12 12 13 13 13 13 13 13 13 13 13 13 13 13 13 14 15 15 15 16 16 16 16 16 16 16 16 15 15 15 15
9 10 10 10 11 11 11 10 10 10 10 11 11 12 12 12 12 12 12 12 12 12 12 12 12 12 13 14 14 14 15 15 15 15 15 15 15 15 15 15 15 15
9 9 9 10 10 10 10 10 10 10 10 10 11 11 11 11 11 11 11 11 11 12 12 11 11 12 12 13 13 14 14 14 14 14 14 14 14 14 14 14 14 14
9 9 9 10 10 10 9 9 9 9 9 9 10 10 10 10 10 11 11 11 11 11 11 11 11 11 12 12 13 13 13 14 14 14 14 14 14 14 14 14 14 14
8 8 9 9 9 9 9 9 9 9 9 10 10 10 10 10 10 10 10 10 11 11 11 11 11 11 11 12 12 12 13 13 13 13 13 14 14 14 14 14 14 14
7 7 8 8 8 8 8 8 8 8 9 9 9 9 10 9 9 10 10 10 10 10 10 10 10 10 11 11 11 12 12 12 12 12 12 13 13 13 14 14 14 14

ECMWFNIL_925_temp_060.txt.gz
Temp
16 17 18 19 19 19 19 19 19 19 18 19 18 18 18 18 17 17 17 17 17 17 17 17 17 17 17 17 17 17 17 17 17 17 17 17 17 17 17 17 17 18
17 16 18 19 19 19 18 18 19 18 18 18 18 18 18 17 17 17 17 17 17 17 17 17 17 17 17 17 17 17 17 17 17 17 17 17 17 17 17 17 17 17
18 16 17 18 19 18 18 18 18 18 18 18 18 18 18 17 17 17 17 17 17 17 16 17 17 17 17 17 17 17 17 17 17 17 17 17 17 17 17 17 17 17
18 16 17 18 18 18 18 18 18 18 18 18 18 18 17 17 17 17 17 17 17 17 16 16 17 17 17 17 17 18 17 17 17 17 18 17 17 17 17 17 17 17
18 17 17 18 18 18 18 18 18 18 18 18 17 17 17 17 17 17 17 17 17 17 17 16 17 17 17 17 18 18 18 18 18 18 18 18 18 17 17 17 17 17
18 17 17 18 18 18 18 18 18 18 17 17 17 17 17 17 17 17 17 17 17 17 17 17 17 17 17 17 18 18 18 18 18 18 19 18 18 18 18 18 18 18
18 17 17 18 18 17 18 18 18 18 17 17 17 17 17 17 17 17 17 17 17 17 17 17 17 17 17 17 18 18 18 18 18 19 19 19 18 18 18 18 18 18
17 17 17 17 17 17 18 18 18 18 17 17 17 17 17 17 17 17 17 17 17 17 17 17 17 17 17 18 18 18 18 18 18 19 19 18 18 18 18 18 18 18
17 17 17 17 17 17 18 18 18 17 17 17 17 17 17 17 17 17 17 17 17 17 17 17 17 17 17 18 18 18 18 18 18 18 18 18 19 19 18 18 18 18
17 17 17 17 17 17 18 18 17 17 17 17 17 17 17 17 17 17 17 17 17 17 17 17 17 17 17 18 18 18 18 18 18 18 18 18 19 19 19 18 18 18
16 16 17 17 17 17 17 17 17 17 17 17 17 17 17 17 17 17 17 17 17 18 18 18 18 17 17 17 17 17 18 18 18 18 18 18 18 18 19 19 18 18
16 16 16 17 17 17 17 17 17 17 17 17 17 17 17 17 17 17 17 17 18 18 18 18 18 18 18 18 17 17 17 17 18 18 18 18 18 18 18 18 18 18
17 16 16 16 17 17 17 17 17 17 17 17 17 17 17 17 17 17 17 18 18 18 18 18 18 18 18 18 18 17 17 17 17 17 18 18 18 18 18 18 18 18
16 15 15 16 16 16 16 16 16 16 16 17 17 17 17 17 17 17 17 17 17 17 18 17 17 17 17 18 18 18 17 18 18 18 18 18 18 18 18 18 18 18
14 14 15 15 16 16 16 16 16 16 16 16 16 16 16 17 17 17 17 17 17 17 17 17 17 17 17 17 18 18 18 18 18 18 18 18 18 18 18 18 18 18
14 14 14 15 15 15 15 15 15 15 16 16 16 16 16 16 16 17 17 17 17 17 17 17 16 16 16 17 17 17 18 18 18 18 18 18 18 18 18 18 18 18
14 13 14 14 14 14 14 14 14 14 15 15 15 15 15 15 15 16 16 16 17 16 16 16 16 16 16 16 16 17 17 17 18 18 18 18 18 18 18 18 18 18
13 13 13 13 13 14 14 14 14 14 14 14 14 14 15 15 15 15 15 15 15 15 15 15 15 16 16 16 16 16 16 16 17 17 17 18 18 18 18 18 18 17
13 12 12 12 13 13 13 14 14 13 13 13 14 14 14 15 15 15 15 14 14 14 15 15 15 15 16 16 16 16 16 16 16 17 17 17 17 17 18 18 17 17
12 11 11 11 12 12 13 13 13 12 12 13 13 13 14 14 14 14 14 13 13 14 14 14 14 15 15 15 16 16 16 16 16 16 16 17 17 17 17 17 17 17
11 11 11 10 11 11 12 12 12 12 12 12 13 13 13 13 13 14 13 12 12 13 14 14 14 13 14 14 15 15 16 16 15 15 16 16 16 16 16 16 16 16
10 10 10 10 10 11 11 11 11 11 11 12 12 12 12 12 12 12 12 12 12 13 13 13 12 12 13 14 14 14 15 15 14 15 15 16 16 15 15 16 16 15
9 9 9 9 10 10 10 10 10 10 10 11 11 11 11 11 11 11 11 12 12 12 12 12 12 12 13 13 14 14 14 14 14 15 15 15 15 15 15 15 15 14
8 8 8 8 9 9 9 9 10 10 10 10 10 10 10 10 11 11 11 12 12 12 12 12 12 12 13 13 13 14 14 13 14 14 15 14 14 14 14 14 14 14
8 8 8 8 8 8 8 8 9 9 9 9 9 9 9 10 10 10 10 10 11 11 11 11 11 12 12 13 13 13 13 13 13 13 13 13 13 14 14 14 14 14
7 7 8 8 8 8 8 8 8 8 8 8 8 9 9 9 9 9 9 9 9 9 9 10 10 10 11 12 12 12 12 12 12 12 12 12 12 12 13 13 14 14

ECMWFNIL_925_temp_063.txt.gz
Temp
17 18 19 18 19 20 20 20 20 20 20 20 20 20 19 19 19 19 19 18 18 18 18 18 18 18 18 18 18 18 18 18 18 18 18 18 18 18 18 18 18 18
18 18 19 18 18 19 20 20 20 20 20 20 20 20 19 19 19 19 18 18 18 18 18 18 18 18 18 18 18 18 18 18 18 18 18 18 18 18 18 18 18 18
18 18 18 18 18 19 19 19 19 20 20 20 20 20 19 19 19 18 18 18 18 18 18 18 18 18 19 18 18 18 18 18 18 18 18 18 18 18 18 18 18 18
18 18 18 18 18 19 19 19 19 19 20 19 19 19 19 18 18 18 18 19 18 18 18 18 18 19 19 19 19 18 18 18 18 18 18 18 18 18 18 18 18 18
18 18 18 18 18 19 19 19 19 19 19 19 19 19 19 18 18 19 19 18 18 18 18 18 18 19 19 19 19 19 19 19 19 19 19 19 18 18 18 18 18 18
18 18 18 18 18 19 19 19 19 19 19 19 19 19 19 18 19 19 19 18 18 18 18 18 18 18 19 19 19 19 19 19 19 19 19 19 19 19 18 18 18 18
17 18 18 18 18 19 19 19 19 19 19 19 19 19 19 19 19 19 19 18 18 18 18 18 18 19 19 19 19 19 19 20 20 20 20 20 19 19 19 19 19 19
17 17 18 18 18 19 19 19 19 19 19 18 18 18 19 19 19 19 19 19 19 19 19 18 18 19 19 19 19 19 19 20 20 20 20 20 19 19 19 19 19 19
17 18 17 18 18 19 19 19 19 19 18 18 19 18 19 19 19 19 19 19 19 19 19 19 19 19 19 19 19 19 19 19 20 20 20 20 19 19 19 19 19 19
17 18 18 18 18 19 19 19 19 18 18 18 18 19 19 19 19 19 19 19 19 19 19 19 19 19 19 19 19 19 19 19 19 19 19 20 20 20 19 19 19 19
17 18 18 18 19 19 19 19 19 18 18 18 18 19 19 19 19 19 19 19 19 19 19 19 19 19 19 19 19 19 19 19 19 19 19 20 20 20 19 19 19 19
17 17 17 18 19 19 18 18 18 18 18 18 18 18 18 18 18 19 19 19 19 19 19 19 19 19 19 19 19 19 19 19 19 19 20 20 20 20 20 19 19 19
16 17 17 18 19 18 18 18 18 18 18 18 18 19 18 18 19 19 19 19 19 19 20 19 19 19 19 19 19 19 19 19 19 19 19 19 19 20 20 20 20 19
17 17 18 18 18 18 18 18 18 18 18 18 18 18 18 19 19 19 19 19 19 19 19 19 19 19 19 19 19 19 19 19 19 19 19 19 19 19 19 19 19 19
17 17 17 18 18 18 18 18 18 18 18 18 18 18 18 19 19 19 19 19 19 19 19 19 18 18 18 18 19 19 19 19 19 19 19 19 19 19 19 19 19 19
17 16 17 18 18 18 18 18 18 18 18 18 18 18 18 18 19 19 19 19 19 19 18 17 17 17 18 18 18 18 19 19 19 19 19 19 19 19 19 19 19 19
16 17 17 17 18 18 18 18 17 17 17 18 18 18 18 18 18 18 18 18 18 17 16 16 16 17 17 17 18 18 18 19 19 19 19 19 19 19 19 19 19 19
16 16 16 16 17 17 17 16 16 16 16 16 16 16 16 17 17 16 16 16 16 16 16 16 16 16 17 17 17 17 17 18 18 19 19 19 19 19 19 19 19 19
15 15 15 15 14 14 14 14 14 14 14 14 15 15 15 15 15 15 15 15 15 15 15 15 16 16 16 16 16 17 17 17 17 18 19 19 19 19 19 19 19 19
14 14 13 13 13 13 13 13 13 13 13 14 14 14 14 14 14 14 15 15 15 15 15 15 15 16 16 16 16 16 16 17 17 17 18 18 18 18 18 18 18 18
12 12 12 12 12 13 13 13 13 13 13 13 14 14 14 13 13 13 14 14 14 14 15 15 15 15 15 16 16 16 16 16 16 17 17 18 18 18 18 17 17 17
11 11 11 11 11 12 12 12 12 12 12 13 13 13 13 13 12 12 12 12 12 13 14 14 14 14 15 15 15 16 16 16 16 17 17 18 18 17 17 17 17 17
10 10 10 10 11 11 11 11 11 11 11 12 12 12 12 12 11 11 11 11 11 12 13 13 13 13 14 15 16 16 16 15 16 16 17 17 17 17 17 17 16 16
9 9 9 9 10 10 10 10 10 11 11 11 11 11 11 10 10 10 10 10 10 11 11 11 12 13 14 16 16 15 15 14 15 16 16 16 16 16 16 16 15 15
8 8 8 9 9 9 9 9 10 10 10 10 11 10 10 10 10 10 9 10 10 10 10 11 12 13 14 14 14 14 14 13 14 15 15 14 15 15 15 15 15 14
8 8 8 8 8 8 8 9 9 9 10 10 10 10 10 10 10 10 10 10 10 10 11 11 12 12 12 12 12 13 13 13 13 13 13 13 13 13 14 14 14 13

ECMWFNIL_925_temp_069.txt.gz
Temp
17 17 17 18 18 19 19 19 19 19 19 19 19 19 19 19 19 19 19 19 18 18 18 18 18 18 18 18 18 18 18 17 18 18 18 17 17 17 17 18 18 18
17 17 17 18 18 18 19 19 19 19 19 19 19 19 19 19 19 19 19 18 18 18 18 18 18 18 18 18 18 18 18 18 18 17 18 18 17 17 17 18 18 18
17 17 17 18 18 18 19 19 19 19 19 19 19 19 19 19 19 18 18 18 18 18 18 18 18 18 18 18 18 18 18 18 18 18 18 18 18 17 17 18 18 18
16 17 17 18 18 19 19 19 19 19 19 19 19 19 19 19 18 18 18 18 18 18 18 18 18 18 18 18 18 18 18 18 18 18 18 18 18 17 17 18 18 18
16 17 17 18 18 19 19 19 19 19 19 19 19 19 19 18 18 18 18 18 18 18 18 18 18 18 18 18 18 18 18 18 18 18 18 18 18 17 17 18 18 18
16 17 17 18 18 19 19 19 19 19 19 19 19 19 19 18 18 18 18 18 18 18 18 18 18 18 18 18 18 18 18 18 18 18 18 18 18 17 17 18 18 18
16 17 17 18 18 19 19 19 19 19 19 19 19 19 18 19 18 18 18 18 18 18 18 18 18 19 18 18 18 18 18 18 18 18 18 18 18 18 18 18 18 18
16 17 17 18 18 19 19 19 19 19 19 19 19 19 19 19 18 18 18 18 18 18 18 18 19 19 19 19 19 19 19 19 19 18 18 18 18 18 18 18 18 18
17 17 17 18 18 19 19 19 19 19 19 19 19 19 19 18 18 18 18 18 18 18 18 18 19 19 19 19 19 19 19 19 19 19 19 18 18 18 18 18 18 18
17 17 17 18 18 19 19 19 19 19 19 19 18 19 19 18 19 19 18 18 18 18 18 18 19 19 19 19 19 19 19 19 19 19 19 19 18 18 18 18 18 18
16 17 18 18 18 18 18 19 19 19 19 18 18 19 19 19 19 19 19 19 19 19 18 18 19 19 19 19 19 19 19 19 19 19 19 19 19 18 18 18 18 18
16 17 18 18 18 18 18 19 19 18 18 18 18 19 19 19 19 19 19 19 19 19 19 18 19 19 19 19 19 19 19 19 19 19 19 19 19 19 18 18 18 18
16 17 17 17 17 18 19 18 18 18 18 18 18 19 19 19 19 19 19 19 19 19 19 19 19 19 19 19 19 19 19 19 19 19 19 19 19 19 18 18 18 19
16 17 17 16 16 18 19 18 18 18 18 18 19 19 19 19 19 19 19 19 19 19 19 19 19 19 19 19 19 19 19 19 19 19 19 19 19 19 19 19 19 19
16 16 16 15 16 18 18 18 18 18 18 19 19 18 19 19 19 19 19 18 18 18 18 18 18 18 18 19 19 19 19 19 19 19 19 19 19 19 19 19 19 19
15 15 15 15 16 18 18 18 18 18 18 18 18 18 19 19 18 18 18 18 18 18 18 18 18 18 18 18 19 19 19 19 19 19 19 19 19 19 18 18 18 18
14 15 15 15 16 17 18 18 18 18 18 18 18 18 18 18 18 18 17 18 18 18 18 18 18 17 17 18 18 18 19 19 19 19 19 19 19 19 18 19 18 18
14 14 15 15 15 16 17 18 18 18 18 18 18 18 17 18 17 17 17 17 17 17 17 17 17 17 17 17 18 18 18 18 18 18 19 19 18 18 18 18 18 18
13 14 14 15 15 15 16 17 17 17 17 17 17 17 17 17 17 16 16 16 17 17 16 16 17 17 17 17 17 17 18 18 18 18 18 17 17 17 17 17 17 17
13 14 14 14 14 15 15 16 16 16 16 16 16 16 16 16 16 16 16 16 16 16 16 16 16 16 17 17 17 17 17 17 17 17 17 16 16 16 16 16 16 16
13 13 14 14 14 14 14 14 14 14 15 15 15 15 15 15 15 16 16 16 16 16 16 16 16 16 16 17 17 17 17 17 17 17 16 16 16 16 16 16 16 16
11 12 13 13 13 13 13 13 13 13 13 14 15 15 15 15 15 15 15 15 15 16 16 16 15 15 16 16 16 17 17 17 17 17 16 16 16 16 16 16 16 16
9 10 11 11 11 12 13 13 12 12 12 13 13 13 13 14 14 13 14 14 15 15 15 15 14 15 15 15 16 16 16 16 16 16 16 15 15 15 15 15 15 15
9 9 9 9 10 10 11 12 12 12 12 12 13 13 12 12 12 12 12 13 14 14 14 14 14 14 14 15 14 15 15 15 15 15 15 14 14 14 14 14 14 14
9 10 9 9 9 9 9 10 11 11 12 12 13 13 12 12 12 12 12 12 12 12 12 13 13 13 13 13 13 14 14 14 14 14 13 13 13 13 13 13 13 13
9 9 9 9 9 9 9 9 10 11 11 12 12 12 11 11 12 12 12 11 11 11 11 11 11 12 12 12 12 13 13 13 13 13 12 12 12 12 12 11 11 12

ECMWFNIL_925_temp_075.txt.gz
Temp
16 16 15 14 15 17 18 18 18 18 18 18 18 18 18 18 18 18 18 18 18 18 18 18 18 18 18 18 18 18 18 18 18 18 18 18 18 18 17 17 17 17
16 16 16 14 15 16 17 18 18 18 18 18 18 18 18 18 18 18 18 18 18 18 18 18 18 18 18 18 18 18 18 18 18 18 18 18 18 18 18 17 17 17
17 17 16 16 16 17 17 17 18 18 18 18 18 18 18 18 18 18 18 18 18 18 18 18 18 18 18 18 18 18 18 18 18 17 17 18 18 17 17 17 17 17
18 17 17 17 17 17 17 17 17 17 18 18 18 18 18 18 18 18 18 18 18 18 18 18 18 18 18 18 18 18 18 18 17 17 17 17 17 17 17 17 17 17
18 18 17 17 17 17 17 17 17 17 18 18 18 18 18 18 18 18 18 18 18 18 18 18 18 18 18 17 17 17 17 17 17 17 17 17 17 17 17 17 17 17
17 17 17 16 16 17 17 17 17 17 18 18 18 18 18 18 18 18 18 18 18 18 18 18 18 18 18 17 17 17 17 17 17 17 17 17 17 17 17 17 17 17
16 16 16 16 16 16 17 17 17 17 18 18 18 18 18 18 18 18 18 18 18 18 18 18 18 18 18 17 17 17 17 17 17 17 17 17 17 17 17 17 17 17
16 16 16 16 15 16 17 17 17 17 18 18 18 18 18 18 18 18 18 18 18 18 18 18 18 18 18 17 17 17 17 17 17 17 17 17 17 17 17 17 17 17
15 15 16 16 16 16 16 17 17 18 17 18 18 18 18 18 18 18 18 18 18 17 17 17 17 17 17 17 17 17 17 17 17 17 17 17 17 17 17 17 17 17
15 15 16 17 16 16 16 17 18 18 18 18 18 18 18 18 18 18 18 18 18 17 17 17 17 17 17 17 17 17 17 17 17 17 17 17 17 17 17 17 17 17
14 14 15 16 15 15 16 17 17 18 18 18 18 17 18 18 18 18 18 18 18 18 17 17 17 17 17 17 17 17 17 17 17 17 17 17 17 17 17 17 17 17
14 14 14 15 14 14 15 15 16 16 16 17 18 18 18 18 18 18 18 18 18 18 17 17 18 18 18 18 17 17 17 17 18 18 17 17 17 17 17 17 17 17
14 14 14 15 15 14 14 15 16 16 16 16 17 18 18 18 18 18 18 18 18 17 18 18 18 18 18 18 18 18 18 18 18 18 18 18 17 17 17 16 16 16
14 14 14 15 14 14 14 15 16 16 17 16 16 17 18 18 18 18 17 17 17 17 18 18 18 18 18 18 18 18 18 18 18 18 18 18 17 17 17 16 16 16
14 14 14 14 14 14 14 15 16 15 16 16 15 15 17 18 18 18 17 17 17 18 18 18 18 18 18 18 18 18 18 19 19 18 18 18 17 17 16 16 16 16
13 14 14 13 14 14 14 15 15 14 15 16 15 14 16 18 18 18 18 17 17 18 18 18 18 18 18 18 18 18 18 18 19 18 18 18 17 17 16 16 17 17
13 14 13 13 13 13 14 14 14 15 15 16 16 15 15 17 18 17 18 18 17 18 18 18 18 18 18 18 18 18 18 18 19 18 18 18 17 17 17 17 17 17
13 13 13 13 13 13 14 14 14 15 15 15 16 15 15 17 18 17 18 18 18 18 18 18 18 18 18 18 18 18 18 19 19 18 18 17 17 17 17 17 17 17
12 13 13 14 13 13 14 14 14 14 14 15 15 15 15 16 17 17 17 17 17 18 18 18 18 18 18 18 18 18 18 18 18 18 17 17 17 17 17 17 17 17
11 12 13 13 13 13 13 13 13 13 13 14 14 13 14 16 16 16 16 17 17 17 17 17 18 18 18 18 18 18 18 18 18 17 17 17 16 16 17 17 17 17
10 11 12 12 12 13 13 13 13 13 13 13 13 12 14 16 16 15 15 15 16 16 17 17 17 17 18 18 18 18 18 18 17 17 16 16 15 15 16 16 16 16
9 9 10 11 11 12 12 12 12 12 12 12 11 11 12 13 14 14 14 14 14 15 16 16 16 17 17 17 17 18 18 17 17 16 15 15 15 14 15 15 15 15
8 9 8 9 9 9 10 10 10 10 10 11 10 10 10 11 12 12 13 13 14 14 15 15 15 15 16 16 16 17 17 17 16 16 15 15 14 14 14 14 14 15
8 8 8 8 7 7 8 8 9 9 9 9 9 9 9 10 10 11 12 12 13 13 13 14 14 13 14 15 16 16 17 17 16 15 14 14 14 13 13 14 14 14
7 8 8 8 7 7 6 7 8 8 8 9 9 9 9 9 10 11 11 11 12 12 12 13 13 13 13 14 15 15 15 15 15 14 13 13 13 13 13 13 13 13
7 7 7 8 8 7 6 6 7 7 8 8 8 8 8 8 8 9 10 10 10 11 11 12 12 12 13 14 14 15 14 14 14 14 13 12 12 12 12 12 12 13

ECMWFNIL_925_temp_078.txt.gz
Temp
17 17 16 16 16 16 16 16 16 16 16 16 17 17 18 18 18 17 17 17 17 17 17 17 17 17 17 17 17 17 17 17 17 17 17 17 17 17 17 17 17 17
16 16 17 17 17 17 16 16 16 16 16 16 17 17 18 18 18 17 17 17 17 17 17 17 17 17 17 17 17 17 17 17 17 17 17 17 17 17 17 17 17 17
15 16 16 17 17 17 16 17 16 16 16 16 17 17 18 18 18 18 18 18 18 18 17 17 17 17 17 17 17 17 17 17 17 17 17 17 17 17 17 17 17 17
15 15 16 16 16 16 16 16 16 16 17 17 17 17 17 18 18 18 18 18 18 18 17 17 17 17 17 17 17 17 17 17 17 17 17 17 17 17 17 17 17 17
15 15 15 15 15 14 14 16 17 17 17 17 17 17 17 18 18 18 18 18 18 18 17 17 17 17 17 17 17 17 17 17 17 17 17 17 17 17 17 17 17 17
14 15 15 15 15 15 15 16 17 17 17 17 17 17 18 18 18 18 18 18 18 18 18 18 18 18 18 17 17 17 17 17 17 17 17 17 17 17 17 17 17 17
14 15 15 16 17 17 16 16 16 16 16 17 17 17 18 18 18 18 18 18 18 18 18 18 18 18 18 17 17 17 17 17 17 17 17 17 17 17 16 16 17 17
15 14 14 15 15 15 16 16 16 16 16 17 17 17 18 18 18 18 18 18 18 18 18 18 18 18 18 17 17 17 17 17 17 17 16 16 16 16 16 16 16 16
14 14 14 14 14 14 15 16 16 15 16 16 17 17 18 18 18 18 18 18 18 18 18 18 18 18 18 17 17 17 17 17 17 16 16 16 16 16 16 16 16 16
14 15 15 14 14 15 15 15 16 16 16 16 17 17 17 18 18 18 18 18 18 18 18 17 17 17 17 17 17 17 17 17 17 16 16 16 17 16 16 16 16 16
13 14 14 14 15 15 14 15 16 15 15 16 16 16 17 17 18 18 17 18 18 18 18 17 17 17 17 17 17 17 17 17 17 17 16 16 17 17 16 16 16 16
13 13 13 14 14 14 14 15 15 15 15 16 17 16 15 16 17 18 17 18 18 18 18 17 17 17 17 17 17 17 17 17 17 17 17 17 17 16 16 16 16 16
13 13 13 13 13 14 14 14 15 15 15 16 17 17 16 15 16 17 17 18 18 18 18 17 17 17 17 17 17 17 17 17 17 17 17 17 16 16 16 16 16 16
12 13 13 13 13 14 14 14 14 14 15 16 16 16 16 16 16 17 17 18 18 18 18 17 17 17 17 17 17 17 17 17 17 17 17 16 16 16 16 16 16 16
12 13 13 13 13 13 13 14 14 14 14 15 16 16 15 15 16 17 17 17 17 17 17 17 17 17 17 17 17 17 17 17 17 17 17 17 16 16 16 16 16 16
12 12 13 13 13 13 13 13 13 14 14 15 15 15 15 15 16 16 17 17 17 17 17 17 17 17 17 17 17 17 18 18 17 17 17 17 17 16 16 16 15 15
11 12 12 13 13 13 13 13 13 14 14 14 15 15 15 15 16 16 16 17 17 17 17 17 17 17 17 17 18 18 18 18 18 18 17 17 17 17 16 16 15 15
10 11 11 12 13 13 13 13 13 13 13 13 14 14 15 15 15 16 16 16 17 17 17 17 17 17 17 18 18 18 18 18 18 18 18 17 17 17 16 16 16 15
9 10 10 11 12 13 13 13 13 13 13 13 13 14 15 15 15 15 16 16 17 17 17 17 17 17 17 18 18 18 18 18 18 18 18 17 16 16 16 16 16 15
8 9 10 10 11 12 13 13 13 13 12 13 13 13 14 14 15 15 15 16 16 16 16 17 17 17 17 18 18 18 18 18 18 18 17 16 16 16 16 15 15 16
7 7 9 10 10 11 12 12 12 12 12 12 12 13 13 13 14 14 14 15 16 16 16 17 17 17 17 17 18 18 18 18 17 17 16 16 16 16 15 15 15 15
6 7 7 8 9 9 9 10 9 10 10 11 11 12 11 11 11 12 13 14 14 15 15 16 16 17 17 17 17 17 17 17 16 16 15 15 15 15 15 15 15 15
6 6 6 7 8 8 7 7 7 7 8 9 10 10 9 9 9 10 11 13 13 13 14 14 15 16 16 16 16 17 17 16 15 15 14 14 14 14 14 14 14 15
6 6 6 6 7 7 6 6 6 6 6 8 8 8 8 8 8 8 9 11 12 12 12 13 13 13 14 14 14 15 16 16 15 14 14 13 13 13 13 13 13 13
6 6 5 5 6 6 6 5 5 5 6 7 8 8 8 8 8 8 7 8 10 11 11 11 11 11 12 13 13 14 15 15 15 14 13 12 12 12 12 12 12 12
6 6 5 5 5 5 6 6 5 5 6 7 7 7 8 8 8 8 7 6 8 9 9 10 10 10 10 11 12 13 14 14 14 14 13 12 12 12 12 12 12 12

ECMWFNIL_925_temp_084.txt.gz
Temp
16 17 17 17 17 18 17 17 17 17 17 18 17 16 16 16 17 16 16 17 17 17 16 16 16 16 17 17 18 18 18 18 17 18 18 17 17 18 18 18 17 18
16 16 16 16 17 17 17 17 17 17 17 17 16 16 16 16 16 16 16 16 16 16 16 16 16 17 17 17 17 17 18 18 17 18 18 18 18 18 17 17 17 18
16 16 16 16 16 17 17 17 17 17 17 16 16 16 16 16 17 17 17 17 16 16 16 16 16 17 17 17 17 17 17 18 18 18 18 18 18 18 17 17 17 18
15 15 16 16 16 16 16 17 17 17 17 16 16 16 16 16 17 18 17 17 16 16 16 16 17 17 17 18 17 17 17 18 19 18 18 18 18 18 18 17 17 17
14 14 15 16 16 16 16 16 16 17 17 16 16 16 16 16 16 17 17 17 16 16 17 17 17 17 17 17 17 17 17 18 19 18 18 18 18 18 18 18 18 17
14 14 15 15 16 15 16 16 16 16 17 16 16 16 16 15 16 16 16 16 17 17 17 17 17 17 17 17 17 17 17 18 18 18 18 19 18 18 18 18 18 18
13 14 14 15 15 15 15 16 16 16 16 16 16 16 16 16 16 16 16 16 17 17 17 17 17 16 16 17 18 18 18 18 18 18 18 19 19 18 18 18 18 17
13 13 14 14 15 15 15 15 15 15 16 16 16 16 16 16 17 17 16 16 17 16 16 17 17 16 17 18 18 17 18 18 18 18 19 19 19 18 19 18 17 17
12 12 13 14 14 15 15 15 15 15 15 16 16 16 16 16 17 17 17 16 17 16 17 17 17 16 16 17 17 17 18 19 18 18 18 18 19 18 18 18 17 17
12 12 12 12 13 14 14 15 15 15 15 15 15 16 16 16 17 17 17 17 16 16 17 17 17 17 16 16 16 18 19 19 18 18 18 18 18 18 17 18 18 19
12 11 11 11 12 13 13 14 14 15 15 15 15 15 16 16 16 17 17 17 16 16 16 16 17 17 17 16 15 17 18 19 19 18 17 17 17 17 17 18 18 19
12 11 11 10 11 12 12 13 14 14 15 15 15 15 16 16 16 16 17 17 17 17 16 16 17 17 17 17 16 17 18 19 19 18 17 17 17 17 18 18 19 19
12 11 11 10 11 11 12 13 13 14 14 15 15 16 15 15 16 16 16 17 17 17 17 16 16 17 17 17 17 17 18 19 19 18 17 17 17 18 18 18 18 18
11 11 11 11 11 11 11 12 13 14 14 14 15 15 15 15 15 16 16 16 16 17 16 16 16 16 17 17 17 17 18 18 19 18 18 17 17 18 18 18 18 18
11 11 11 11 11 11 11 11 12 13 14 14 14 15 15 15 15 15 15 16 16 17 16 16 16 16 16 17 17 17 18 18 18 18 19 18 18 18 18 18 18 18
11 11 11 11 10 11 11 11 11 12 14 14 14 14 15 15 15 15 15 15 16 17 17 16 16 16 16 17 17 17 18 18 18 18 18 18 18 18 18 18 18 18
11 11 11 10 10 10 10 10 11 11 12 13 14 14 14 15 15 15 15 15 15 16 16 16 16 16 16 16 16 17 18 18 18 18 18 18 17 17 18 18 18 18
11 10 10 10 10 10 10 10 10 10 10 11 12 13 14 14 14 14 14 14 15 15 15 15 15 15 16 16 16 17 18 18 18 18 18 17 17 17 17 17 17 18
11 10 10 10 10 10 9 9 9 9 8 9 10 11 12 13 13 14 14 14 14 14 14 14 14 15 15 15 15 16 17 17 18 18 17 17 17 17 17 17 17 17
10 10 10 10 9 9 9 9 8 8 8 8 8 10 10 11 12 12 12 12 13 13 13 13 13 14 15 15 15 16 17 17 17 18 17 17 17 17 17 17 17 17
10 10 9 9 9 9 9 8 8 7 7 7 7 8 8 9 10 10 10 10 11 12 12 12 13 13 14 15 15 16 17 17 17 17 17 17 17 17 17 17 17 17
9 9 9 9 9 9 8 8 7 7 6 6 7 6 7 7 8 8 8 9 9 10 10 11 11 12 14 14 14 15 16 17 16 17 17 17 16 16 16 16 16 16
8 8 9 9 8 8 8 7 7 7 6 6 6 6 6 6 6 7 7 8 8 8 9 9 10 12 13 13 12 13 14 16 16 16 16 16 16 15 15 15 15 16
8 7 8 8 8 8 7 7 7 6 6 6 5 5 5 5 5 5 6 6 7 7 8 8 9 10 12 12 11 12 13 15 16 16 16 15 15 14 14 14 14 15
7 6 6 7 8 8 7 7 6 6 6 6 5 5 5 5 4 4 5 5 6 7 7 8 8 9 11 11 10 11 13 14 15 15 15 14 14 13 12 12 12 13
7 6 5 6 7 8 7 7 6 6 6 6 6 5 5 5 5 5 4 4 5 5 6 7 8 9 10 11 10 10 12 13 14 14 14 13 13 12 11 11 11 12

ECMWFNIL_925_temp_087.txt.gz
Temp
17 18 18 18 17 17 17 17 18 17 17 17 17 17 17 18 18 17 17 17 16 17 17 17 17 17 17 17 17 17 16 16 17 17 17 17 17 17 17 17 17 18
16 17 17 17 17 17 17 17 16 16 16 17 17 17 17 17 17 17 17 17 17 17 17 17 17 17 17 17 17 17 17 16 16 17 17 17 17 16 16 17 17 18
15 16 16 17 17 17 17 16 15 15 16 16 17 17 18 17 17 17 17 17 17 17 17 17 17 17 16 16 17 18 17 16 16 17 17 17 17 17 17 17 17 18
14 15 16 17 17 16 16 16 15 15 16 16 16 17 17 17 17 17 17 17 17 17 17 16 17 16 16 16 17 17 17 16 16 17 17 17 17 17 17 17 17 18
14 14 15 16 16 16 15 16 16 16 16 16 16 16 17 17 17 17 17 17 16 17 17 16 16 16 16 16 17 16 16 17 17 16 17 17 16 16 16 17 18 18
14 14 15 15 15 15 15 16 16 16 16 16 16 16 17 17 17 17 17 17 16 16 16 16 16 16 16 17 17 17 16 16 16 16 16 17 16 15 16 17 18 18
14 14 14 14 15 15 15 15 16 16 16 16 16 16 16 16 17 18 17 17 17 17 17 17 16 16 17 17 17 17 17 16 16 16 16 16 16 16 17 17 18 18
14 14 13 14 14 14 15 15 15 16 16 16 16 16 16 16 17 18 18 18 18 17 17 17 17 17 17 17 17 17 17 16 16 16 16 16 16 16 17 17 17 18
14 14 13 13 13 13 14 14 14 15 16 16 16 16 17 17 17 17 18 18 18 17 18 18 17 17 17 17 17 17 17 16 16 16 16 16 16 16 16 17 17 18
14 14 13 13 13 13 13 13 13 14 15 16 16 17 17 17 17 17 17 17 17 17 18 18 18 17 16 16 16 16 17 17 17 17 17 16 16 16 16 16 17 17
14 13 13 13 13 13 12 13 13 13 14 15 16 16 17 17 17 17 17 17 17 17 17 17 17 17 16 17 16 16 17 17 17 17 17 17 16 16 15 16 17 17
14 14 13 13 13 13 12 12 13 13 13 14 15 15 16 16 17 17 17 17 17 17 17 17 17 17 17 17 17 16 17 17 17 17 17 17 17 16 15 16 17 17
14 14 14 14 13 13 13 12 12 12 13 14 15 15 16 16 16 16 17 17 17 17 17 17 17 17 17 18 17 17 17 17 16 16 17 17 17 16 16 16 17 18
14 14 14 14 13 13 12 12 12 12 12 12 13 14 15 16 16 16 16 16 16 16 17 17 17 17 17 17 18 17 17 16 16 16 17 17 17 17 16 17 17 18
14 14 14 14 13 12 12 12 12 12 11 11 12 12 13 14 15 16 16 16 16 16 16 16 17 17 16 16 17 17 17 17 16 16 17 17 16 17 17 17 17 18
14 14 14 13 13 12 12 12 11 11 11 10 10 11 12 13 13 14 15 16 16 16 16 16 16 16 16 17 16 17 17 17 17 16 16 16 16 17 17 17 18 17
14 13 13 13 12 12 11 11 11 10 10 10 9 10 10 11 11 12 13 14 15 15 15 15 15 15 16 16 16 16 17 17 17 16 16 16 17 17 17 17 18 17
13 13 13 12 12 11 11 11 10 10 9 9 9 9 8 9 9 10 11 12 13 14 14 14 15 15 15 15 16 16 17 17 17 17 17 16 16 16 16 17 17 16
13 12 12 11 11 11 10 10 10 9 9 8 8 8 8 8 8 8 9 11 11 12 12 13 13 14 15 15 15 16 16 16 16 17 17 16 16 16 16 17 18 17
12 12 12 11 11 10 10 10 9 9 8 8 8 8 7 7 7 7 7 8 9 9 10 11 12 13 14 14 14 15 15 15 16 16 16 16 16 16 17 18 18 17
11 11 11 11 11 10 10 9 9 8 8 7 7 7 7 6 6 6 6 6 7 8 8 9 10 11 12 13 13 13 14 15 15 15 16 16 16 17 18 18 17 17
11 10 10 11 11 10 10 9 8 8 7 7 7 7 6 6 6 5 5 5 6 6 7 7 8 9 10 11 12 13 13 14 15 15 15 16 16 17 18 17 16 16
10 9 9 10 10 10 10 9 8 8 7 7 7 7 6 6 6 5 5 5 5 5 5 6 7 8 9 10 11 12 12 13 14 14 15 15 16 16 17 16 15 15
9 9 9 10 10 10 9 9 9 8 8 7 7 7 6 6 6 5 5 5 4 4 5 5 6 7 8 9 10 11 11 13 14 14 15 15 15 15 14 14 15 16
9 9 9 9 10 9 9 9 9 9 8 8 7 7 6 6 6 5 5 4 4 4 4 4 5 6 7 9 9 10 12 13 14 14 14 14 14 13 13 13 13 14
9 9 9 9 9 9 9 9 9 9 9 9 8 8 7 6 6 6 5 4 4 4 4 4 4 5 6 8 9 10 11 13 14 13 13 13 13 12 12 12 12 13

ECMWFNIL_925_temp_093.txt.gz
Temp
14 14 14 14 14 14 15 15 15 15 15 15 15 15 15 15 15 16 16 16 16 16 17 17 17 16 16 16 16 16 16 16 16 16 16 15 15 16 16 16 16 17
14 14 14 14 14 14 14 14 14 15 15 15 15 15 15 15 15 15 15 16 16 16 16 17 17 16 16 16 16 16 16 16 16 16 16 16 15 15 16 16 16 16
14 14 14 14 13 14 14 14 14 14 14 15 15 15 15 15 15 15 15 15 15 16 16 16 16 16 16 16 16 16 16 16 16 16 16 16 16 15 16 16 16 16
14 14 14 13 13 13 13 13 13 13 14 14 14 15 15 15 15 15 15 16 16 15 16 16 16 16 16 15 15 15 15 15 16 16 15 16 16 15 15 16 16 16
14 14 14 13 13 13 13 13 13 13 13 13 14 14 14 14 15 15 15 15 16 16 15 15 15 16 16 16 15 15 14 14 15 15 15 15 16 16 15 15 15 16
14 14 14 13 13 13 13 12 12 12 12 13 13 13 13 14 14 14 15 15 16 16 16 15 15 15 15 15 15 15 14 14 15 15 14 15 16 16 16 15 15 16
14 13 13 13 13 13 12 12 12 12 12 12 12 12 13 13 13 14 14 15 15 15 16 16 15 15 15 15 15 15 14 14 14 14 15 15 15 15 15 15 15 16
13 13 13 13 12 12 12 12 12 12 11 11 11 12 12 13 13 13 14 14 14 14 15 15 15 15 15 14 14 14 15 14 14 15 15 15 15 15 15 15 15 15
13 12 12 12 12 11 11 11 11 11 11 11 11 11 12 12 12 13 13 13 14 14 14 15 15 14 14 14 14 15 15 15 14 15 15 15 15 15 15 15 15 15
12 12 12 11 11 11 11 10 10 10 10 10 10 10 10 11 12 12 12 12 13 13 13 14 13 13 14 14 14 15 15 15 15 15 15 14 15 15 15 15 15 15
12 12 11 11 10 10 10 10 10 9 9 9 9 9 9 9 11 11 11 11 11 12 12 12 12 12 12 12 13 13 14 14 14 15 15 14 14 14 15 15 15 15
12 11 11 11 10 10 9 9 9 9 9 8 8 8 8 8 9 9 9 9 10 10 11 11 10 10 11 11 12 12 13 14 14 14 15 15 14 14 14 15 15 15
11 11 11 11 10 10 9 9 9 8 8 8 7 7 7 7 7 8 8 9 9 10 9 9 9 9 10 10 11 12 12 13 13 14 14 14 14 14 14 15 16 16
11 11 11 10 10 9 9 9 8 8 8 7 7 7 7 7 6 6 7 7 7 8 8 8 8 8 8 9 10 11 12 12 13 13 14 14 14 14 14 15 16 16
11 10 10 10 9 9 9 8 8 8 7 7 7 7 7 6 6 6 6 6 6 6 6 6 6 6 6 7 8 9 11 12 12 13 13 14 14 14 14 14 15 16
10 10 10 9 9 9 9 8 8 8 7 7 7 7 6 6 5 5 5 5 5 5 5 5 5 5 6 7 7 8 9 11 12 12 13 13 14 14 14 15 15 15
10 10 10 9 9 9 9 9 8 8 7 7 7 7 6 6 5 5 5 4 4 4 4 4 4 4 5 7 7 8 8 10 11 12 13 13 13 13 14 15 15 15
10 10 10 9 9 9 9 9 8 8 8 7 7 7 6 6 6 5 5 4 4 4 4 4 4 4 5 6 7 8 9 10 11 12 13 13 13 13 14 14 15 15
9 9 9 9 9 9 9 9 9 8 8 7 7 7 7 6 6 5 5 4 4 4 4 4 3 4 5 6 7 8 9 10 11 11 13 14 14 13 13 14 14 14
9 9 9 9 9 9 9 9 9 8 8 8 7 7 7 6 6 6 5 5 4 4 3 3 3 3 5 6 7 9 10 10 11 11 12 13 13 13 13 14 14 14
9 9 9 9 9 9 9 9 9 8 8 8 7 7 7 6 6 6 5 5 4 3 3 3 3 3 4 6 7 8 9 10 10 11 12 13 12 13 13 13 14 14
9 9 8 8 8 8 8 8 8 8 8 8 7 7 7 6 6 5 5 4 4 3 3 3 3 3 4 5 6 8 9 10 10 10 11 12 11 12 13 13 14 14
9 8 8 7 7 7 8 8 8 8 8 7 7 7 7 6 6 6 5 5 4 4 3 3 3 3 4 4 5 6 8 9 9 9 9 10 10 10 11 11 12 13
8 8 8 7 7 7 7 7 7 7 7 7 7 7 6 6 6 6 5 5 4 4 3 3 3 3 3 4 4 5 6 7 7 7 8 8 9 9 9 9 10 11
8 8 8 7 7 7 7 7 7 7 7 7 6 6 6 6 6 6 5 5 4 4 3 3 3 3 3 3 4 5 5 5 6 6 6 6 7 7 8 8 9 10
8 8 8 7 7 7 7 7 7 7 6 6 6 6 6 6 6 6 5 5 4 4 3 3 3 3 4 4 4 4 5 5 5 5 4 4 5 5 6 7 8 9

ECMWFNIL_925_temp_096.txt.gz
Temp
13 13 13 13 13 13 13 13 13 13 14 14 14 14 14 14 14 15 15 15 15 15 15 16 16 16 16 16 16 16 16 16 16 16 16 16 16 15 15 15 15 15
13 13 13 13 13 13 13 13 13 13 13 13 13 14 14 14 14 14 15 15 15 15 15 15 15 16 15 15 16 15 15 15 15 15 15 15 15 15 15 15 15 15
13 13 13 13 12 12 12 12 12 13 13 13 13 13 13 14 14 14 14 14 14 15 15 15 15 15 15 15 15 15 15 15 15 15 15 15 15 14 14 15 15 15
13 12 12 12 12 12 12 12 12 12 12 12 12 13 13 14 14 14 14 14 14 14 14 14 14 14 14 15 15 15 15 15 15 15 14 14 14 14 14 14 14 14
12 12 12 12 11 11 11 11 11 11 11 11 11 12 13 13 13 13 13 13 14 14 14 14 14 14 14 14 14 14 15 14 14 14 14 14 14 14 14 15 14 14
11 11 11 11 11 10 10 10 10 10 10 10 11 11 12 12 12 13 12 12 13 13 13 13 13 13 14 14 14 14 14 14 14 14 14 14 14 14 14 14 15 15
10 10 10 10 10 10 9 9 9 9 9 10 10 10 10 11 12 12 11 11 11 11 11 12 12 12 13 13 13 13 14 14 14 14 14 14 14 14 14 14 14 15
10 9 9 9 9 9 9 9 9 9 9 9 9 9 9 9 10 10 10 10 10 9 10 10 11 11 12 12 12 13 13 14 14 15 15 14 14 14 14 14 15 15
9 9 9 9 9 8 8 8 8 8 8 8 8 8 8 8 9 9 9 9 9 8 9 9 10 11 11 12 12 12 13 13 14 14 14 14 14 14 14 14 15 15
9 9 9 8 8 8 8 8 7 7 7 7 7 7 7 7 7 7 8 8 8 7 8 8 9 10 10 10 11 11 12 12 13 13 13 14 14 14 14 14 14 14
9 9 8 8 8 8 8 7 7 7 7 7 7 6 6 6 6 6 6 6 6 6 7 7 7 7 8 9 9 10 11 11 12 12 13 13 14 14 14 14 14 14
9 8 8 8 8 8 7 7 7 7 7 6 6 6 6 5 5 5 5 5 5 5 6 6 5 6 7 7 8 9 10 11 11 12 13 13 13 14 14 14 14 14
9 8 8 8 8 8 7 7 7 7 7 6 6 5 5 5 5 5 5 5 5 5 5 5 5 5 6 6 7 8 9 10 11 12 13 13 13 13 13 14 14 14
9 9 8 8 8 8 7 7 7 7 6 6 6 5 5 5 5 4 4 4 4 4 4 4 4 4 5 6 6 7 8 9 10 11 12 13 13 13 13 14 14 14
9 9 9 8 8 8 7 7 7 7 6 6 6 6 5 5 4 4 4 4 4 4 4 4 4 3 4 5 6 7 8 9 10 10 11 12 13 14 14 13 13 14
9 9 9 8 8 8 8 7 7 7 6 6 6 6 5 5 4 4 4 3 3 4 4 4 3 3 3 5 6 7 8 9 10 10 11 11 12 13 14 14 14 13
9 9 8 8 8 8 8 7 7 7 6 6 6 6 5 5 4 4 4 3 3 3 3 3 3 3 4 6 7 8 8 9 9 10 10 11 11 12 13 14 14 14
8 8 8 8 8 8 7 7 7 7 6 6 6 5 5 5 4 4 4 3 3 3 3 3 3 3 4 6 8 8 8 9 9 9 9 10 10 10 11 12 13 13
8 8 8 7 7 7 7 7 7 7 6 6 6 6 5 5 4 4 4 3 3 3 3 3 3 3 4 5 7 8 9 9 8 8 9 10 10 10 10 11 12 13
8 7 7 7 7 7 7 6 6 6 6 6 6 6 5 5 4 4 4 3 3 3 3 3 3 3 4 5 6 8 9 9 8 7 8 8 8 9 9 10 11 12
7 7 7 7 7 7 6 6 6 6 6 6 6 5 5 5 4 4 4 3 3 3 3 3 3 3 4 4 6 7 8 8 8 7 6 7 7 7 8 8 9 10
7 7 7 7 6 6 6 6 6 6 6 6 6 5 5 5 4 4 3 3 3 3 3 3 3 3 4 4 5 6 7 7 7 6 6 6 7 7 7 7 8 9
7 7 6 6 6 6 6 6 5 5 5 5 5 5 5 4 4 4 3 3 3 3 3 3 3 3 4 4 4 5 6 6 6 5 5 6 6 6 6 7 7 7
7 7 6 6 6 6 6 6 5 5 5 5 5 5 4 4 4 4 4 3 3 3 2 3 3 3 3 4 4 4 5 4 4 4 4 5 5 5 6 6 6 6
7 7 6 6 6 6 6 5 5 5 5 5 5 4 4 4 4 4 4 4 3 3 3 3 3 3 3 4 4 4 4 4 3 3 4 4 4 4 5 5 5 6
7 7 6 6 6 6 6 5 5 5 5 5 5 4 4 4 4 4 4 4 4 3 3 3 3 3 3 4 4 4 4 4 3 3 3 3 3 3 3 4 4 4

ECMWFNIL_925_temp_102.txt.gz
Temp
12 11 11 11 11 11 11 11 11 11 11 11 11 11 12 12 12 12 12 12 12 12 13 13 13 13 13 14 14 14 14 14 14 14 14 14 14 14 14 14 15 15
11 11 11 10 10 10 10 10 10 10 10 10 11 11 11 11 12 12 12 12 12 12 12 13 13 13 13 13 13 13 14 14 14 14 14 14 14 14 14 14 14 14
10 10 10 10 9 9 9 9 9 9 10 10 10 10 10 11 11 11 11 11 11 12 11 12 12 12 12 13 13 13 13 13 13 13 14 14 14 14 14 14 14 14
9 9 9 9 9 9 9 9 9 9 9 10 10 10 10 10 11 11 11 11 11 11 11 11 11 12 12 12 12 13 13 13 12 13 13 13 14 14 14 14 14 14
8 8 8 8 8 8 8 9 9 9 9 10 10 10 10 10 10 10 10 10 10 10 11 11 11 11 12 12 12 12 12 12 12 12 12 13 13 13 13 13 14 14
8 8 8 8 8 8 8 8 8 9 9 9 9 10 10 10 9 9 9 9 9 8 9 10 10 10 11 10 11 11 11 11 11 12 12 12 13 13 13 13 13 13
7 7 7 8 8 8 8 8 8 8 8 9 9 9 9 9 8 7 7 7 7 6 6 6 7 8 8 8 8 8 8 9 10 10 10 11 11 12 12 12 12 12
7 7 7 7 8 8 8 8 8 8 8 9 9 8 8 8 6 6 6 5 5 5 4 4 5 5 5 5 5 6 7 8 8 8 8 8 9 10 10 11 11 11
7 7 7 7 7 7 7 7 7 7 8 8 8 8 8 7 6 5 4 4 4 4 4 4 4 4 4 4 4 4 5 6 7 7 7 7 7 7 8 9 9 9
7 7 7 7 7 7 7 7 7 7 7 7 7 8 7 7 6 5 4 4 4 4 3 3 3 3 3 3 3 4 4 6 7 7 7 7 7 7 7 7 7 8
7 7 6 6 6 6 6 6 6 6 6 7 7 7 7 7 6 4 3 3 3 3 3 3 3 3 3 3 3 4 4 5 6 6 7 7 7 7 7 7 7 8
7 6 6 6 6 6 5 6 6 6 6 6 6 6 6 5 4 3 3 3 3 3 3 3 3 3 3 3 3 4 4 5 5 6 6 7 7 7 7 7 8 8
6 6 6 6 5 5 5 5 5 5 5 5 5 5 5 4 4 3 3 3 3 3 3 3 3 3 2 3 4 4 4 5 5 5 6 6 6 7 7 7 7 8
6 6 6 6 5 5 5 5 5 5 5 5 5 5 5 4 4 3 3 3 3 3 3 3 3 3 3 3 3 4 4 5 5 5 6 6 6 6 6 6 6 7
6 6 6 6 6 5 5 5 5 5 5 5 5 5 5 5 4 4 4 3 3 3 3 3 3 4 4 3 3 3 4 5 5 5 5 5 5 5 5 5 5 5
6 6 6 6 6 5 5 5 5 5 5 5 5 4 4 4 4 4 4 4 3 3 3 3 3 4 5 5 4 4 4 4 4 5 5 5 5 4 4 4 4 5
6 6 6 6 6 5 5 5 5 5 5 5 5 4 4 4 4 4 4 3 3 3 3 2 3 4 5 6 6 6 5 4 4 4 4 4 4 4 4 4 4 4
6 6 6 6 5 5 5 5 5 5 5 5 5 4 4 4 4 4 4 3 3 3 2 2 3 4 5 5 6 6 5 4 3 4 4 3 3 3 3 3 3 3
6 6 5 5 5 5 5 5 5 5 5 5 5 5 5 4 4 4 4 3 3 3 2 2 3 4 5 5 5 6 6 4 3 3 3 3 3 3 3 3 3 3
6 5 5 5 5 5 5 5 5 5 5 5 5 5 5 4 4 4 4 4 3 3 3 3 3 4 4 5 5 5 6 4 3 3 3 3 3 3 2 2 3 3
5 5 5 5 5 5 5 5 5 5 5 5 4 4 4 4 4 4 4 4 4 3 3 3 3 3 4 4 5 5 5 4 3 2 2 2 2 2 2 2 2 3
5 5 5 5 5 5 5 5 5 5 5 5 4 4 4 4 4 4 4 4 4 4 4 3 3 3 4 4 4 4 5 4 3 2 2 2 2 2 2 2 2 2
5 5 5 5 5 5 4 4 4 4 4 4 4 4 4 4 4 4 4 4 4 3 3 3 3 3 3 3 4 4 4 4 2 1 1 2 2 2 2 1 2 2
5 5 5 4 4 4 4 4 4 4 4 4 4 4 4 4 4 4 4 3 3 3 3 3 3 3 3 3 3 3 4 3 2 1 1 1 1 1 1 1 1 2
5 5 4 4 4 4 4 4 4 4 4 4 4 4 4 4 4 4 3 3 3 3 3 3 3 3 3 3 3 3 3 3 1 1 1 1 1 1 1 1 1 1
5 5 4 4 4 4 4 4 4 4 4 4 4 4 4 4 3 3 3 3 3 3 3 3 2 3 3 3 3 3 3 2 1 0 0 1 1 1 1 1 1 1

ECMWFNIL_925_temp_105.txt.gz
Temp
10 10 10 10 10 9 9 10 10 10 10 10 10 10 10 9 10 11 11 10 11 11 11 11 12 12 12 12 12 13 13 13 13 13 13 13 14 14 14 14 14 14
9 9 9 9 9 9 9 9 9 9 9 9 9 9 9 9 9 10 10 10 10 11 11 11 11 11 11 12 12 12 12 12 12 12 12 13 12 12 12 13 13 14
9 9 9 9 8 8 8 9 8 8 8 8 8 8 8 8 8 9 9 9 9 9 10 10 10 11 10 10 10 9 9 9 9 10 10 11 11 10 11 11 12 12
8 8 8 8 8 9 9 9 9 8 7 7 7 7 8 8 8 7 7 8 7 8 8 9 9 9 9 8 8 7 7 7 8 8 8 9 9 9 10 10 10 11
8 8 8 8 8 9 8 8 8 7 7 6 6 7 7 7 7 7 6 6 6 6 6 7 7 6 6 6 6 6 6 6 7 7 7 7 8 8 9 9 9 10
7 7 7 7 7 8 8 7 7 8 7 7 6 6 6 6 6 6 6 5 5 5 5 5 5 5 5 5 5 5 6 6 6 6 7 7 7 8 8 8 8 9
7 7 7 7 7 7 7 7 8 8 8 8 7 5 5 6 6 5 5 5 5 5 5 5 5 5 5 5 5 5 5 6 6 6 6 6 7 7 7 7 8 8
7 6 7 7 7 7 7 7 8 8 8 8 7 5 5 5 5 5 5 4 5 5 5 5 5 5 5 4 4 5 5 6 6 6 6 6 6 7 7 7 7 8
6 6 7 7 7 7 7 7 7 7 7 8 6 4 5 5 5 5 5 5 5 5 5 5 5 5 4 4 4 4 4 5 5 5 6 6 6 6 7 7 7 7
6 6 6 6 6 6 7 7 7 6 7 7 6 5 5 5 5 5 5 5 5 5 5 5 5 5 4 4 4 4 4 4 5 5 5 6 6 6 7 7 7 7
6 6 6 6 6 6 6 6 7 6 6 6 6 5 4 4 5 5 5 5 5 5 5 5 5 4 4 4 3 4 4 4 5 5 5 6 6 6 6 6 7 7
6 6 6 6 6 6 6 6 6 6 5 5 5 5 4 4 4 4 5 5 5 5 5 4 4 4 4 4 3 3 4 4 5 5 6 6 6 6 6 6 6 6
6 6 6 6 5 6 6 6 6 6 5 5 5 5 4 4 4 4 4 5 4 4 4 4 4 3 4 4 3 3 4 4 5 5 6 6 6 6 6 5 5 5
6 6 6 6 5 6 6 6 6 6 5 5 5 5 5 4 4 4 4 4 4 4 4 4 3 3 4 4 4 4 4 4 5 5 5 5 5 6 6 5 5 5
6 6 6 6 6 6 6 6 6 6 5 5 5 5 5 4 3 4 4 4 4 4 4 3 3 3 4 4 4 4 4 4 5 5 5 5 5 5 5 5 5 4
6 6 6 6 6 5 5 5 6 6 5 5 5 5 5 4 4 4 3 4 4 4 4 3 3 4 5 5 5 5 4 4 4 5 5 5 5 5 5 4 4 4
6 6 6 5 5 5 5 5 5 5 5 5 5 5 5 4 4 4 3 3 3 3 3 3 3 4 5 5 5 5 4 3 4 4 4 4 4 4 4 4 4 4
5 5 5 5 5 5 5 5 5 5 5 5 5 5 5 5 4 4 4 3 3 3 3 3 3 4 5 5 5 5 4 3 4 4 4 4 4 4 4 4 3 3
5 5 5 5 5 5 5 5 5 5 5 5 5 5 5 5 5 5 4 3 3 3 3 3 3 4 5 5 5 5 4 3 4 4 4 4 4 3 3 3 3 3
5 5 5 5 5 5 5 5 5 5 5 5 5 5 5 4 4 4 4 3 3 3 3 3 2 4 4 5 5 5 3 3 3 3 4 4 3 3 3 3 3 2
5 4 4 4 5 5 5 5 5 5 5 4 4 4 4 4 4 4 3 3 3 3 3 3 2 3 4 4 5 4 3 3 3 3 3 3 3 3 3 3 2 2
4 4 4 4 5 5 5 5 5 4 4 4 4 4 4 3 3 3 3 3 3 3 3 3 3 3 4 4 5 4 3 3 3 3 3 3 3 3 3 3 2 2
4 4 4 4 4 4 4 4 4 4 4 4 4 4 3 3 3 3 2 2 3 2 3 3 3 3 3 4 4 4 3 3 3 3 3 3 3 3 3 2 2 2
4 4 4 4 4 4 4 4 4 4 4 4 4 3 3 3 3 3 3 2 3 3 3 3 2 3 3 3 4 4 3 3 3 3 3 3 3 3 3 2 2 2
4 4 4 4 4 4 4 4 4 4 4 4 3 3 3 3 3 3 3 3 3 3 3 3 2 2 3 3 3 4 3 2 3 3 2 3 3 3 3 2 2 2
4 4 4 4 4 4 4 4 4 4 3 3 3 3 3 3 3 3 3 3 3 3 3 3 3 2 2 3 3 3 3 2 2 2 2 3 3 3 3 3 2 2

ECMWFNIL_925_temp_111.txt.gz
Temp
15 15 14 14 14 14 14 14 14 14 14 13 13 13 12 12 12 12 12 12 12 12 11 11 11 11 12 12 12 12 12 12 12 11 11 11 12 12 12 12 12 12
14 14 14 14 13 13 13 13 13 13 13 13 12 12 12 12 12 12 11 12 12 11 11 11 11 11 12 11 11 12 12 12 12 11 11 12 12 12 12 11 11 12
13 13 13 13 13 13 13 13 12 12 12 12 12 12 12 12 12 11 11 11 11 11 11 11 11 11 11 11 11 12 12 12 11 11 11 12 12 12 12 12 12 12
13 13 13 13 13 13 13 13 13 12 12 12 12 12 12 11 11 11 11 11 11 11 11 11 11 11 11 11 11 11 11 11 11 10 11 12 12 12 12 12 12 12
13 13 13 13 12 13 13 12 12 12 12 12 12 12 11 11 11 11 11 11 11 11 11 11 11 11 11 11 11 11 11 11 10 11 11 11 11 12 12 12 12 12
13 13 13 13 12 12 12 12 12 12 12 12 11 11 11 11 11 11 12 12 12 11 11 11 11 11 11 11 11 11 10 10 10 11 11 11 11 12 12 12 12 12
13 13 13 13 12 12 12 12 12 12 11 11 11 11 11 11 11 11 12 12 11 11 11 11 11 11 10 11 11 11 11 10 10 11 11 11 11 12 12 12 12 12
12 12 12 12 12 12 12 11 11 11 11 11 11 11 11 11 11 11 11 11 11 11 11 11 11 10 10 10 10 11 11 11 11 11 11 12 12 12 12 11 11 11
12 12 12 12 12 11 11 11 11 11 11 11 11 11 11 11 11 11 11 11 11 11 11 10 10 10 10 10 10 10 11 11 11 11 11 11 11 11 11 11 11 11
12 12 12 12 11 11 11 11 11 11 11 11 11 11 11 11 11 11 11 11 11 10 10 10 10 9 9 9 9 10 10 11 11 11 11 11 11 11 11 10 10 10
12 12 11 11 11 11 11 11 11 11 11 11 11 11 11 11 11 11 11 10 10 10 10 9 9 8 8 8 8 9 10 10 10 11 11 11 10 10 10 10 10 9
12 11 11 11 11 11 11 11 11 11 11 11 11 11 11 11 10 10 10 10 10 9 9 8 8 7 6 6 7 9 10 10 10 10 10 10 10 10 9 9 9 8
11 11 11 11 11 11 11 11 11 11 11 11 11 11 11 11 11 10 10 10 9 9 8 7 7 6 5 5 6 8 10 10 10 10 10 10 9 9 9 9 8 8
11 11 11 11 11 11 11 11 11 10 10 10 10 10 11 11 10 10 10 10 9 9 8 7 6 5 5 5 5 6 8 10 10 10 10 9 9 9 9 9 8 8
11 11 11 11 11 11 10 10 10 10 10 10 10 10 10 10 10 10 10 10 9 8 7 6 5 5 5 5 5 6 7 8 10 9 9 9 9 9 9 8 8 7
11 11 11 11 11 10 10 10 10 10 10 10 10 10 10 10 10 10 10 9 9 8 7 6 5 5 6 6 6 7 7 8 9 9 9 9 9 8 8 7 7 7
11 11 11 11 11 11 10 10 10 10 10 10 10 10 9 9 9 9 9 9 9 8 7 6 5 6 6 6 7 7 7 8 9 9 9 9 8 8 8 7 7 6
11 11 11 11 11 11 11 10 10 10 10 10 9 9 9 9 9 9 9 9 9 8 7 6 5 6 6 6 7 8 8 8 9 9 9 8 8 8 7 7 6 6
11 11 11 11 11 11 10 10 10 10 10 10 9 9 9 9 9 9 9 9 9 8 7 5 6 6 6 6 7 8 8 8 9 9 9 8 8 8 7 7 6 6
11 11 11 11 10 10 10 10 10 10 10 9 9 9 9 9 9 8 8 9 8 8 7 6 6 6 7 7 7 8 8 9 9 9 9 9 9 8 7 7 6 6
11 11 11 11 10 10 10 10 9 9 9 9 9 9 9 9 9 8 8 8 8 8 7 6 6 6 7 7 7 8 8 9 9 9 9 9 9 9 8 7 6 6
11 11 10 10 10 10 10 9 9 9 9 9 9 9 9 9 9 8 8 8 8 8 7 6 5 6 7 7 7 8 8 9 10 10 10 10 9 9 9 7 6 6
10 10 10 10 10 9 9 9 9 9 9 9 9 9 9 9 9 8 8 7 7 7 7 6 5 6 6 6 7 7 8 9 10 10 10 10 9 9 9 8 6 6
10 10 10 10 9 9 9 9 9 9 9 9 9 9 9 9 9 8 8 7 7 7 7 6 5 5 6 6 7 7 7 8 9 10 10 10 9 9 9 8 7 7
9 9 9 9 9 9 9 9 9 9 9 9 9 10 10 9 9 9 8 8 7 6 6 7 6 5 5 6 6 7 7 7 8 9 9 9 9 9 9 8 8 7
9 9 9 9 9 9 9 9 9 9 9 10 10 10 10 9 9 9 8 8 8 7 6 6 6 5 5 5 6 6 6 7 7 7 8 9 9 9 9 8 8 7

ECMWFNIL_925_temp_114.txt.gz
Temp
15 15 15 14 14 14 14 14 14 14 13 13 13 12 12 12 12 12 12 12 12 12 12 12 12 12 12 12 12 12 12 12 11 11 12 12 12 12 12 12 12 12
15 14 14 14 14 13 13 13 13 13 13 13 12 12 12 12 12 12 12 12 12 12 12 12 12 12 12 12 12 12 12 11 11 11 12 12 12 12 12 12 12 12
14 14 14 13 13 13 13 13 13 13 12 12 12 12 12 12 12 12 12 12 12 12 12 12 11 11 11 11 11 11 11 11 11 11 12 12 12 12 12 12 12 12
14 13 13 13 13 13 13 13 13 13 13 12 12 12 12 12 12 12 12 12 12 12 12 11 11 11 11 11 11 11 11 11 11 11 12 12 12 12 12 12 12 12
13 13 14 14 14 13 13 13 13 12 12 12 12 12 12 12 12 12 12 12 12 12 11 11 11 11 11 11 11 11 11 11 11 11 12 12 12 12 12 11 11 11
13 13 13 13 13 13 13 13 13 12 12 12 12 12 12 12 12 12 12 12 12 11 11 11 11 10 11 11 11 11 11 11 11 12 12 12 12 12 11 11 11 11
13 13 13 13 13 12 12 12 12 12 12 12 12 12 12 12 12 12 12 12 11 11 11 11 10 10 10 10 11 11 11 11 11 11 11 11 11 11 11 10 10 10
13 13 13 12 12 12 12 12 12 12 12 12 12 12 12 12 12 12 11 11 11 11 10 10 9 9 9 10 10 11 11 11 11 11 11 11 10 10 10 10 9 9
13 13 12 12 12 12 12 12 12 12 12 12 12 12 12 11 11 11 11 11 10 10 9 9 8 8 9 9 10 10 11 11 11 11 10 10 10 10 9 9 9 8
13 12 12 12 12 12 12 12 12 12 12 12 12 11 11 11 11 11 10 10 10 9 9 8 7 7 8 8 9 10 10 10 10 10 10 10 10 9 9 9 8 8
12 12 12 12 12 12 12 12 12 12 12 12 11 11 11 11 11 11 10 9 9 8 8 7 6 7 7 8 9 10 10 10 10 10 10 9 9 9 9 8 8 8
12 12 11 11 12 11 11 12 12 12 12 11 11 11 11 11 10 10 10 9 8 7 7 6 6 6 7 7 8 9 10 10 10 9 9 9 9 9 8 8 8 7
12 12 11 11 11 11 11 11 11 12 11 11 11 11 11 11 10 10 9 9 8 7 6 6 6 7 7 8 8 9 9 9 9 9 9 9 9 8 8 7 7 7
11 11 11 11 11 11 11 11 11 11 11 11 11 11 11 11 10 10 9 9 8 7 6 6 6 7 7 8 8 9 9 9 9 9 9 9 8 8 8 7 7 7
11 11 11 11 11 11 11 11 11 11 11 11 11 11 11 11 10 10 9 8 7 7 6 7 6 7 7 8 8 9 9 9 9 9 9 8 8 8 7 7 7 7
11 11 11 11 11 11 11 11 11 11 11 10 10 10 10 10 10 9 9 8 7 6 6 7 7 7 7 8 8 9 9 9 9 9 9 8 8 8 7 7 7 7
11 11 11 11 11 11 11 11 11 10 10 10 10 10 10 10 10 9 8 8 7 6 6 6 7 7 8 8 8 9 9 9 9 9 9 8 8 8 8 7 7 6
12 11 11 11 11 11 11 11 10 10 10 10 10 10 10 10 9 9 8 8 7 6 6 6 7 7 8 8 9 9 9 9 9 9 9 9 9 8 7 7 6 6
12 12 11 11 11 11 11 11 10 10 10 9 9 9 9 9 9 9 8 8 7 6 6 6 7 7 8 8 9 9 9 9 9 9 9 9 9 8 7 7 6 6
12 12 11 11 11 11 11 10 10 10 10 9 9 9 9 9 9 9 8 8 7 6 6 6 6 7 8 8 8 9 9 10 10 10 10 9 9 8 7 7 6 6
12 11 11 11 11 11 10 10 10 10 10 9 9 9 9 9 9 9 8 8 7 6 6 6 6 7 8 8 8 9 9 10 10 10 10 10 9 8 8 7 6 6
11 11 11 11 10 10 10 10 10 10 10 9 9 9 9 8 8 8 8 8 7 7 6 6 7 7 8 8 8 9 9 10 10 10 10 10 9 9 8 7 7 7
11 11 11 10 10 10 10 10 10 10 10 9 9 9 9 8 8 8 8 7 7 7 6 6 7 7 7 8 8 8 9 9 10 9 9 9 9 9 8 8 7 7
11 11 10 10 10 10 10 10 10 10 10 10 9 9 9 8 8 7 7 7 7 7 6 6 6 7 7 7 8 8 8 8 8 8 8 9 9 9 8 8 8 7
10 10 10 10 9 9 9 10 10 10 10 10 10 10 9 9 8 8 7 7 7 7 7 6 6 6 7 7 7 7 7 7 7 7 8 8 9 9 8 8 8 7
9 9 9 9 9 9 9 10 10 10 10 10 10 10 9 9 9 8 8 7 7 7 7 7 7 6 6 6 7 7 7 7 6 7 7 7 8 9 8 8 8 7

ECMWFNIL_925_temp_117.txt.gz
Temp
16 16 15 15 15 15 15 14 14 13 13 13 12 12 12 12 12 12 12 11 11 11 11 11 11 11 11 11 11 11 11 11 11 11 12 12 12 11 11 11 11 10
15 15 15 15 14 14 14 14 14 13 13 12 12 12 12 12 12 12 12 12 11 11 11 11 11 11 11 11 11 11 11 11 11 11 11 11 11 11 11 10 10 10
15 15 14 14 14 14 13 13 13 13 12 12 12 12 12 12 12 12 12 11 11 11 11 11 11 11 11 11 11 11 11 11 11 11 11 11 11 10 10 10 9 9
14 14 14 14 13 13 13 13 12 12 12 12 12 12 12 12 12 12 11 11 11 11 11 11 11 11 11 11 11 11 11 11 11 11 10 10 10 10 10 9 9 8
14 13 13 13 13 13 12 12 12 12 12 12 12 12 12 12 12 11 11 11 10 10 10 10 11 11 11 11 11 11 11 11 10 10 10 9 9 9 9 8 8 7
13 13 13 13 13 12 12 12 12 12 12 12 12 12 12 12 11 11 11 10 10 10 10 10 10 10 11 11 11 11 10 10 10 10 9 9 9 8 8 8 7 7
13 13 13 13 13 12 12 12 12 12 12 12 12 12 11 11 11 10 10 10 10 9 9 10 10 10 10 10 10 10 10 10 9 9 9 8 8 8 8 7 7 7
13 13 13 12 12 12 12 12 12 12 12 12 11 11 11 11 10 10 9 9 9 9 9 9 10 10 10 10 10 10 10 9 9 9 8 8 8 7 7 7 7 6
13 12 12 12 12 12 12 12 12 12 11 11 11 11 11 10 10 10 9 9 9 9 9 9 9 9 10 10 10 9 9 9 9 8 8 8 7 7 7 7 7 6
12 12 12 12 12 12 12 11 11 11 11 11 11 10 10 10 10 9 9 9 9 8 8 9 9 9 9 9 9 9 9 9 8 8 8 7 7 7 7 7 6 6
12 12 12 12 12 12 12 11 11 11 11 11 11 10 10 9 9 9 9 8 8 8 8 8 9 9 9 9 9 9 9 9 8 8 8 7 7 7 7 6 6 6
12 12 12 12 12 12 11 11 11 11 11 11 10 10 9 9 9 9 8 8 7 7 8 8 8 9 9 9 9 9 9 8 8 8 7 7 7 7 7 6 6 6
11 11 11 11 12 11 11 11 11 11 11 10 10 10 9 9 8 8 8 7 7 7 7 8 8 9 9 9 9 9 8 8 8 8 7 7 7 7 6 6 6 6
11 11 11 11 11 11 11 11 11 11 11 10 10 10 9 8 8 7 7 7 7 7 7 8 8 9 9 9 9 8 8 8 8 8 7 7 7 7 6 6 6 6
11 11 11 11 11 11 11 11 11 11 11 10 10 9 9 8 8 7 7 7 7 7 8 8 8 8 8 9 9 8 8 8 8 8 7 7 7 7 6 6 6 5
11 11 11 11 11 11 11 11 11 10 10 10 10 9 9 8 8 7 7 7 7 7 7 8 8 8 8 9 9 9 9 8 8 8 8 7 7 7 6 6 6 5
11 11 11 11 11 11 10 10 10 10 10 10 9 9 9 8 8 7 7 7 7 7 7 8 8 8 8 9 9 9 9 9 9 8 8 8 8 7 7 6 6 6
11 11 11 11 10 10 10 10 10 10 10 9 9 9 8 8 7 7 7 7 7 7 7 7 8 8 9 9 9 9 9 9 9 8 8 8 8 7 7 7 6 6
11 11 11 10 10 10 10 10 9 9 9 9 9 9 8 8 7 7 6 6 7 7 7 7 8 8 9 9 9 9 9 9 9 9 8 8 8 7 7 7 7 6
11 11 10 10 10 10 10 9 9 9 9 9 9 9 8 8 7 7 6 6 7 7 7 7 8 8 8 9 9 9 9 9 9 9 9 8 8 7 7 7 7 7
11 11 10 10 10 10 9 9 9 9 9 9 9 8 8 8 7 7 7 6 7 7 7 7 7 8 8 9 9 9 9 9 9 9 8 8 8 7 7 7 7 7
11 11 10 10 10 10 9 9 9 9 9 9 8 8 8 8 7 7 7 7 7 7 7 7 7 8 8 9 9 9 9 9 9 8 8 8 8 7 7 7 7 7
11 10 10 10 10 10 9 9 9 9 9 8 8 8 8 7 7 7 7 7 7 7 7 7 7 8 8 8 9 9 9 9 9 8 8 8 8 8 7 7 7 7
10 10 10 10 10 10 9 9 9 9 9 8 8 8 8 7 7 7 7 7 7 7 7 7 7 7 8 8 8 8 8 8 8 8 8 8 8 8 7 7 7 7
10 10 10 10 10 9 9 9 9 9 9 9 8 8 8 8 8 7 7 7 7 7 7 7 7 7 7 7 7 8 8 8 8 8 8 7 7 7 7 7 7 8
10 10 10 10 10 9 9 9 9 9 9 9 9 8 8 8 8 7 7 7 7 7 7 7 7 7 7 7 7 7 7 7 7 7 7 7 7 7 7 7 7 8